Time,TemperatureF,DewpointF,PressureIn,WindDirection,WindDirectionDegrees,WindSpeedMPH,WindSpeedGustMPH,Humidity,HourlyPrecipIn,Conditions,Clouds,dailyrainin,SolarRadiationWatts/m^2,SoftwareType,DateUTC
2013-01-24 00:01:00,41.6,-1.4,30.10,SW,215,4.0,11.0,16,0.00,,,0.00,0,Wunderground v.1.15,2013-01-24 07:01:00,
2013-01-24 00:07:00,41.5,-1.4,30.10,WNW,284,4.0,11.0,16,0.00,,,0.00,0,Wunderground v.1.15,2013-01-24 07:07:00,
2013-01-24 00:12:00,41.2,-1.7,30.10,SW,225,4.0,9.0,16,0.00,,,0.00,0,Wunderground v.1.15,2013-01-24 07:12:00,
2013-01-24 00:17:00,41.1,-1.8,30.09,SSW,196,4.0,9.0,16,0.00,,,0.00,0,Wunderground v.1.15,2013-01-24 07:17:00,
2013-01-24 00:24:00,41.1,-0.5,30.09,SSW,202,4.0,4.0,17,0.00,,,0.00,0,Wunderground v.1.15,2013-01-24 07:24:00,
2013-01-24 00:30:00,41.0,-0.6,30.09,SW,233,3.0,3.0,17,0.00,,,0.00,0,Wunderground v.1.15,2013-01-24 07:30:00,
2013-01-24 00:36:00,40.8,-2.0,30.09,SSW,195,3.0,3.0,16,0.00,,,0.00,0,Wunderground v.1.15,2013-01-24 07:36:00,
2013-01-24 00:41:00,40.5,-1.0,30.09,SSE,167,3.0,4.0,17,0.00,,,0.00,0,Wunderground v.1.15,2013-01-24 07:41:00,
2013-01-24 00:46:00,40.1,-1.3,30.09,SSE,158,3.0,4.0,17,0.00,,,0.00,0,Wunderground v.1.15,2013-01-24 07:46:00,
2013-01-24 00:52:00,39.6,-1.7,30.08,South,180,2.0,3.0,17,0.00,,,0.00,0,Wunderground v.1.15,2013-01-24 07:52:00,
2013-01-24 00:58:00,39.3,-2.0,30.08,South,169,2.0,4.0,17,0.00,,,0.00,0,Wunderground v.1.15,2013-01-24 07:58:00,
2013-01-24 01:04:00,39.2,-2.1,30.08,South,169,2.0,12.0,17,0.00,,,0.00,0,Wunderground v.1.15,2013-01-24 08:04:00,
2013-01-24 01:10:00,39.2,-2.1,30.08,South,170,2.0,2.0,17,0.00,,,0.00,0,Wunderground v.1.15,2013-01-24 08:10:00,
2013-01-24 01:15:00,39.2,-2.1,30.08,South,169,2.0,2.0,17,0.00,,,0.00,0,Wunderground v.1.15,2013-01-24 08:15:00,
2013-01-24 01:21:00,39.2,-2.1,30.08,SSE,167,2.0,2.0,17,0.00,,,0.00,0,Wunderground v.1.15,2013-01-24 08:21:00,
2013-01-24 01:27:00,39.3,-2.0,30.07,South,169,2.0,3.0,17,0.00,,,0.00,0,Wunderground v.1.15,2013-01-24 08:27:00,
2013-01-24 01:33:00,39.4,-1.9,30.07,SSE,163,2.0,2.0,17,0.00,,,0.00,0,Wunderground v.1.15,2013-01-24 08:33:00,
2013-01-24 01:38:00,39.4,-1.9,30.07,SSE,163,1.0,4.0,17,0.00,,,0.00,0,Wunderground v.1.15,2013-01-24 08:38:00,
2013-01-24 01:44:00,39.1,-0.9,30.07,SSE,161,2.0,3.0,18,0.00,,,0.00,0,Wunderground v.1.15,2013-01-24 08:44:00,
2013-01-24 01:50:00,38.7,-1.3,30.07,SSE,154,3.0,4.0,18,0.00,,,0.00,0,Wunderground v.1.15,2013-01-24 08:50:00,
2013-01-24 01:56:00,38.2,-1.7,30.07,SSE,152,4.0,7.0,18,0.00,,,0.00,0,Wunderground v.1.15,2013-01-24 08:56:00,
2013-01-24 02:01:00,38.0,-1.8,30.07,SSE,153,5.0,6.0,18,0.00,,,0.00,0,Wunderground v.1.15,2013-01-24 09:01:00,
2013-01-24 02:07:00,37.7,-0.9,30.07,SE,144,3.0,8.0,19,0.00,,,0.00,0,Wunderground v.1.15,2013-01-24 09:07:00,
2013-01-24 02:13:00,37.3,-1.3,30.06,SE,142,2.0,6.0,19,0.00,,,0.00,0,Wunderground v.1.15,2013-01-24 09:13:00,
2013-01-24 02:19:00,37.1,-1.4,30.06,SE,142,2.0,6.0,19,0.00,,,0.00,0,Wunderground v.1.15,2013-01-24 09:19:00,
2013-01-24 02:25:00,36.9,-1.6,30.06,SSE,154,2.0,5.0,19,0.00,,,0.00,0,Wunderground v.1.15,2013-01-24 09:25:00,
2013-01-24 02:30:00,36.6,-1.9,30.05,SE,132,3.0,4.0,19,0.00,,,0.00,0,Wunderground v.1.15,2013-01-24 09:30:00,
2013-01-24 02:36:00,36.4,-2.0,30.06,SSE,149,3.0,4.0,19,0.00,,,0.00,0,Wunderground v.1.15,2013-01-24 09:36:00,
2013-01-24 02:42:00,36.1,-2.3,30.05,SSE,154,3.0,3.0,19,0.00,,,0.00,0,Wunderground v.1.15,2013-01-24 09:42:00,
2013-01-24 02:47:00,35.8,-2.5,30.05,SE,134,4.0,8.0,19,0.00,,,0.00,0,Wunderground v.1.15,2013-01-24 09:47:00,
2013-01-24 02:52:00,35.7,-2.6,30.05,SE,143,5.0,5.0,19,0.00,,,0.00,0,Wunderground v.1.15,2013-01-24 09:52:00,
2013-01-24 02:57:00,35.6,-2.7,30.05,SSE,150,5.0,6.0,19,0.00,,,0.00,0,Wunderground v.1.15,2013-01-24 09:57:00,
2013-01-24 03:03:00,35.9,-2.4,30.05,SE,145,5.0,9.0,19,0.00,,,0.00,0,Wunderground v.1.15,2013-01-24 10:03:00,
2013-01-24 03:08:00,36.2,-2.2,30.05,SE,132,6.0,9.0,19,0.00,,,0.00,0,Wunderground v.1.15,2013-01-24 10:08:00,
2013-01-24 03:14:00,36.4,-3.2,30.04,South,180,6.0,11.0,18,0.00,,,0.00,0,Wunderground v.1.15,2013-01-24 10:14:00,
2013-01-24 03:19:00,36.2,-3.3,30.04,SSE,161,6.0,11.0,18,0.00,,,0.00,0,Wunderground v.1.15,2013-01-24 10:19:00,
2013-01-24 03:25:00,36.0,-3.5,30.04,SSE,155,6.0,7.0,18,0.00,,,0.00,0,Wunderground v.1.15,2013-01-24 10:25:00,
2013-01-24 03:31:00,35.9,-3.6,30.04,South,184,6.0,6.0,18,0.00,,,0.00,0,Wunderground v.1.15,2013-01-24 10:31:00,
2013-01-24 03:36:00,35.9,-3.6,30.04,SSE,158,6.0,6.0,18,0.00,,,0.00,0,Wunderground v.1.15,2013-01-24 10:36:00,
2013-01-24 03:42:00,35.8,-3.7,30.03,SE,146,5.0,5.0,18,0.00,,,0.00,0,Wunderground v.1.15,2013-01-24 10:42:00,
2013-01-24 03:48:00,36.1,-3.4,30.03,SSE,152,6.0,7.0,18,0.00,,,0.00,0,Wunderground v.1.15,2013-01-24 10:48:00,
2013-01-24 03:53:00,36.2,-3.3,30.03,SSE,161,6.0,6.0,18,0.00,,,0.00,0,Wunderground v.1.15,2013-01-24 10:53:00,
2013-01-24 03:59:00,36.4,-3.2,30.03,SSE,153,6.0,7.0,18,0.00,,,0.00,0,Wunderground v.1.15,2013-01-24 10:59:00,
2013-01-24 04:05:00,36.5,-3.1,30.03,SE,144,7.0,10.0,18,0.00,,,0.00,0,Wunderground v.1.15,2013-01-24 11:05:00,
2013-01-24 04:11:00,36.5,-3.1,30.02,SSE,150,7.0,9.0,18,0.00,,,0.00,0,Wunderground v.1.15,2013-01-24 11:11:00,
2013-01-24 04:16:00,36.8,-2.8,30.02,SE,145,8.0,9.0,18,0.00,,,0.00,0,Wunderground v.1.15,2013-01-24 11:16:00,
2013-01-24 04:21:00,37.1,-2.6,30.02,SE,136,7.0,12.0,18,0.00,,,0.00,0,Wunderground v.1.15,2013-01-24 11:21:00,
2013-01-24 04:27:00,37.1,-2.6,30.01,SE,146,6.0,12.0,18,0.00,,,0.00,0,Wunderground v.1.15,2013-01-24 11:27:00,
2013-01-24 04:32:00,36.8,-2.8,30.01,SE,144,6.0,14.0,18,0.00,,,0.00,0,Wunderground v.1.15,2013-01-24 11:32:00,
2013-01-24 04:38:00,36.6,-1.9,30.01,SSE,148,6.0,14.0,19,0.00,,,0.00,0,Wunderground v.1.15,2013-01-24 11:38:00,
2013-01-24 04:44:00,36.6,-1.9,30.01,ESE,114,5.0,10.0,19,0.00,,,0.00,0,Wunderground v.1.15,2013-01-24 11:44:00,
2013-01-24 04:49:00,36.7,-2.9,30.01,SE,146,5.0,10.0,18,0.00,,,0.00,0,Wunderground v.1.15,2013-01-24 11:49:00,
2013-01-24 04:55:00,36.6,-3.0,30.00,SE,136,4.0,7.0,18,0.00,,,0.00,0,Wunderground v.1.15,2013-01-24 11:55:00,
2013-01-24 05:02:00,36.4,-2.0,30.00,SSE,151,4.0,14.0,19,0.00,,,0.00,0,Wunderground v.1.15,2013-01-24 12:02:00,
2013-01-24 05:08:00,36.1,-2.3,30.01,SSE,155,4.0,14.0,19,0.00,,,0.00,0,Wunderground v.1.15,2013-01-24 12:08:00,
2013-01-24 05:14:00,36.1,-2.3,30.00,SE,145,6.0,11.0,19,0.00,,,0.00,0,Wunderground v.1.15,2013-01-24 12:14:00,
2013-01-24 05:19:00,36.5,-3.1,30.00,SSE,160,6.0,11.0,18,0.00,,,0.00,0,Wunderground v.1.15,2013-01-24 12:19:00,
2013-01-24 05:24:00,36.6,-3.0,30.00,SSE,150,4.0,5.0,18,0.00,,,0.00,0,Wunderground v.1.15,2013-01-24 12:24:00,
2013-01-24 05:29:00,36.5,-3.1,30.01,SSE,148,3.0,5.0,18,0.00,,,0.00,0,Wunderground v.1.15,2013-01-24 12:29:00,
2013-01-24 05:35:00,36.4,-3.2,30.00,SSE,168,2.0,3.0,18,0.00,,,0.00,0,Wunderground v.1.15,2013-01-24 12:35:00,
2013-01-24 05:40:00,36.6,-3.0,30.00,WSW,240,2.0,2.0,18,0.00,,,0.00,0,Wunderground v.1.15,2013-01-24 12:40:00,
2013-01-24 05:45:00,36.9,-2.7,30.01,WSW,254,2.0,7.0,18,0.00,,,0.00,0,Wunderground v.1.15,2013-01-24 12:45:00,
2013-01-24 05:51:00,37.0,-2.7,30.01,SSW,192,2.0,2.0,18,0.00,,,0.00,0,Wunderground v.1.15,2013-01-24 12:51:00,
2013-01-24 05:57:00,37.0,-2.7,30.01,WSW,245,2.0,5.0,18,0.00,,,0.00,0,Wunderground v.1.15,2013-01-24 12:57:00,
2013-01-24 06:03:00,37.2,-2.5,30.01,WSW,256,3.0,16.0,18,0.00,,,0.00,0,Wunderground v.1.15,2013-01-24 13:03:00,
2013-01-24 06:09:00,37.2,-2.5,30.01,West,266,3.0,16.0,18,0.00,,,0.00,0,Wunderground v.1.15,2013-01-24 13:09:00,
2013-01-24 06:14:00,37.2,-2.5,30.02,WSW,238,3.0,4.0,18,0.00,,,0.00,0,Wunderground v.1.15,2013-01-24 13:14:00,
2013-01-24 06:20:00,37.3,-1.3,30.01,South,177,3.0,4.0,19,0.00,,,0.00,0,Wunderground v.1.15,2013-01-24 13:20:00,
2013-01-24 06:25:00,37.3,-1.3,30.02,WNW,300,4.0,9.0,19,0.00,,,0.00,0,Wunderground v.1.15,2013-01-24 13:25:00,
2013-01-24 06:30:00,37.7,-0.9,30.02,WSW,238,4.0,4.0,19,0.00,,,0.00,0,Wunderground v.1.15,2013-01-24 13:30:00,
2013-01-24 06:35:00,38.3,-0.4,30.02,WSW,250,5.0,5.0,19,0.00,,,0.00,0,Wunderground v.1.15,2013-01-24 13:35:00,
2013-01-24 06:41:00,38.6,-0.2,30.01,SW,215,5.0,6.0,19,0.00,,,0.00,0,Wunderground v.1.15,2013-01-24 13:41:00,
2013-01-24 06:47:00,38.8,0.0,30.01,SSW,192,5.0,10.0,19,0.00,,,0.00,0,Wunderground v.1.15,2013-01-24 13:47:00,
2013-01-24 06:53:00,38.3,-0.4,30.01,SSW,194,4.0,5.0,19,0.00,,,0.00,0,Wunderground v.1.15,2013-01-24 13:53:00,
2013-01-24 06:58:00,37.8,-0.9,30.01,South,178,3.0,5.0,19,0.00,,,0.00,0,Wunderground v.1.15,2013-01-24 13:58:00,
2013-01-24 07:04:00,37.1,-0.3,30.01,SSE,150,3.0,10.0,20,0.00,,,0.00,0,Wunderground v.1.15,2013-01-24 14:04:00,
2013-01-24 07:09:00,36.7,-0.7,30.00,South,187,3.0,10.0,20,0.00,,,0.00,0,Wunderground v.1.15,2013-01-24 14:09:00,
2013-01-24 07:15:00,36.2,-1.1,30.01,SSW,194,3.0,3.0,20,0.00,,,0.00,0,Wunderground v.1.15,2013-01-24 14:15:00,
2013-01-24 07:20:00,35.9,-0.3,30.02,SW,221,2.0,2.0,21,0.00,,,0.00,0,Wunderground v.1.15,2013-01-24 14:20:00,
2013-01-24 07:25:00,35.7,-0.5,30.02,WSW,242,2.0,4.0,21,0.00,,,0.00,7,Wunderground v.1.15,2013-01-24 14:25:00,
2013-01-24 07:31:00,35.7,-0.5,30.02,SW,218,3.0,4.0,21,0.00,,,0.00,11,Wunderground v.1.15,2013-01-24 14:31:00,
2013-01-24 07:36:00,35.8,-0.4,30.01,South,189,2.0,4.0,21,0.00,,,0.00,18,Wunderground v.1.15,2013-01-24 14:36:00,
2013-01-24 07:41:00,35.9,-0.3,30.02,SSE,150,3.0,3.0,21,0.00,,,0.00,19,Wunderground v.1.15,2013-01-24 14:41:00,
2013-01-24 07:46:00,35.8,-0.4,30.03,South,179,4.0,7.0,21,0.00,,,0.00,23,Wunderground v.1.15,2013-01-24 14:46:00,
2013-01-24 07:52:00,35.6,0.4,30.02,South,182,4.0,6.0,22,0.00,,,0.00,42,Wunderground v.1.15,2013-01-24 14:52:00,
2013-01-24 07:57:00,35.5,0.3,30.02,SSE,159,4.0,6.0,22,0.00,,,0.00,42,Wunderground v.1.15,2013-01-24 14:57:00,
2013-01-24 08:03:00,35.6,0.4,30.03,SSW,201,3.0,12.0,22,0.00,,,0.00,40,Wunderground v.1.15,2013-01-24 15:03:00,
2013-01-24 08:08:00,35.8,0.6,30.03,SSW,208,3.0,12.0,22,0.00,,,0.00,60,Wunderground v.1.15,2013-01-24 15:08:00,
2013-01-24 08:14:00,36.0,0.8,30.03,SW,232,2.0,3.0,22,0.00,,,0.00,56,Wunderground v.1.15,2013-01-24 15:14:00,
2013-01-24 08:20:00,36.2,0.9,30.03,WNW,296,2.0,2.0,22,0.00,,,0.00,42,Wunderground v.1.15,2013-01-24 15:20:00,
2013-01-24 08:26:00,36.6,1.3,30.02,West,280,3.0,5.0,22,0.00,,,0.00,56,Wunderground v.1.15,2013-01-24 15:26:00,
2013-01-24 08:31:00,37.0,2.6,30.03,SW,223,3.0,7.0,23,0.00,,,0.00,90,Wunderground v.1.15,2013-01-24 15:31:00,
2013-01-24 08:36:00,37.6,3.1,30.02,WSW,255,3.0,9.0,23,0.00,,,0.00,77,Wunderground v.1.15,2013-01-24 15:36:00,
2013-01-24 08:41:00,37.9,3.3,30.03,SW,229,3.0,7.0,23,0.00,,,0.00,76,Wunderground v.1.15,2013-01-24 15:41:00,
2013-01-24 08:46:00,38.2,2.6,30.03,South,181,4.0,7.0,22,0.00,,,0.00,62,Wunderground v.1.15,2013-01-24 15:46:00,
2013-01-24 08:52:00,38.0,3.4,30.03,South,180,3.0,4.0,23,0.00,,,0.00,44,Wunderground v.1.15,2013-01-24 15:52:00,
2013-01-24 08:57:00,38.0,4.3,30.03,SSW,207,3.0,8.0,24,0.00,,,0.00,63,Wunderground v.1.15,2013-01-24 15:57:00,
2013-01-24 09:02:00,38.0,4.3,30.03,SSW,204,3.0,6.0,24,0.00,,,0.00,123,Wunderground v.1.15,2013-01-24 16:02:00,
2013-01-24 09:08:00,39.5,6.5,30.04,South,175,4.0,11.0,25,0.00,,,0.00,113,Wunderground v.1.15,2013-01-24 16:08:00,
2013-01-24 09:13:00,40.5,6.5,30.04,SSW,197,7.0,12.0,24,0.00,,,0.00,81,Wunderground v.1.15,2013-01-24 16:13:00,
2013-01-24 09:19:00,41.6,9.2,30.04,South,171,8.0,14.0,26,0.00,,,0.00,420,Wunderground v.1.15,2013-01-24 16:19:00,
2013-01-24 09:24:00,42.2,8.8,30.04,SSW,194,9.0,21.0,25,0.00,,,0.00,506,Wunderground v.1.15,2013-01-24 16:24:00,
2013-01-24 09:29:00,42.9,9.4,30.03,South,188,9.0,21.0,25,0.00,,,0.00,469,Wunderground v.1.15,2013-01-24 16:29:00,
2013-01-24 09:35:00,42.0,9.5,30.03,South,183,8.0,12.0,26,0.00,,,0.00,107,Wunderground v.1.15,2013-01-24 16:35:00,
2013-01-24 09:41:00,41.1,10.4,30.03,SSW,193,10.0,11.0,28,0.00,,,0.00,74,Wunderground v.1.15,2013-01-24 16:41:00,
2013-01-24 09:46:00,40.7,11.6,30.02,South,169,10.0,11.0,30,0.00,,,0.00,135,Wunderground v.1.15,2013-01-24 16:46:00,
2013-01-24 09:51:00,41.5,13.1,30.02,SSW,210,9.0,11.0,31,0.00,,,0.00,445,Wunderground v.1.15,2013-01-24 16:51:00,
2013-01-24 09:56:00,42.5,13.9,30.02,South,176,8.0,11.0,31,0.00,,,0.00,450,Wunderground v.1.15,2013-01-24 16:56:00,
2013-01-24 10:01:00,42.9,14.3,30.02,SSE,163,7.0,12.0,31,0.00,,,0.00,461,Wunderground v.1.15,2013-01-24 17:01:00,
2013-01-24 10:07:00,43.4,14.7,30.02,South,171,7.0,12.0,31,0.00,,,0.00,466,Wunderground v.1.15,2013-01-24 17:07:00,
2013-01-24 10:12:00,43.3,14.6,30.02,South,189,8.0,11.0,31,0.00,,,0.00,454,Wunderground v.1.15,2013-01-24 17:12:00,
2013-01-24 10:18:00,43.6,15.6,30.01,SSE,155,7.0,11.0,32,0.00,,,0.00,533,Wunderground v.1.15,2013-01-24 17:18:00,
2013-01-24 10:23:00,44.0,15.3,30.01,South,175,7.0,8.0,31,0.00,,,0.00,522,Wunderground v.1.15,2013-01-24 17:23:00,
2013-01-24 10:28:00,44.1,16.1,30.00,South,173,7.0,12.0,32,0.00,,,0.00,536,Wunderground v.1.15,2013-01-24 17:28:00,
2013-01-24 10:33:00,44.0,16.0,30.00,WSW,250,9.0,13.0,32,0.00,,,0.00,504,Wunderground v.1.15,2013-01-24 17:33:00,
2013-01-24 10:39:00,43.8,15.8,30.00,SSW,199,9.0,16.0,32,0.00,,,0.00,508,Wunderground v.1.15,2013-01-24 17:39:00,
2013-01-24 10:44:00,44.0,16.0,29.99,WSW,245,9.0,9.0,32,0.00,,,0.00,455,Wunderground v.1.15,2013-01-24 17:44:00,
2013-01-24 10:50:00,44.1,16.8,29.99,WSW,238,8.0,8.0,33,0.00,,,0.00,508,Wunderground v.1.15,2013-01-24 17:50:00,
2013-01-24 10:55:00,43.7,16.4,29.99,WSW,250,9.0,11.0,33,0.00,,,0.00,512,Wunderground v.1.15,2013-01-24 17:55:00,
2013-01-24 11:00:00,44.3,17.0,30.00,West,278,9.0,13.0,33,0.00,,,0.00,533,Wunderground v.1.15,2013-01-24 18:00:00,
2013-01-24 11:05:00,44.5,17.1,29.99,SSW,196,8.0,19.0,33,0.00,,,0.00,538,Wunderground v.1.15,2013-01-24 18:05:00,
2013-01-24 11:11:00,44.5,17.1,30.00,SSW,207,9.0,18.0,33,0.00,,,0.00,545,Wunderground v.1.15,2013-01-24 18:11:00,
2013-01-24 11:16:00,44.7,18.0,30.00,SW,233,8.0,18.0,34,0.00,,,0.00,550,Wunderground v.1.15,2013-01-24 18:16:00,
2013-01-24 11:22:00,44.7,18.0,29.99,SW,223,9.0,10.0,34,0.00,,,0.00,554,Wunderground v.1.15,2013-01-24 18:22:00,
2013-01-24 11:27:00,45.0,19.0,29.99,South,180,10.0,16.0,35,0.00,,,0.00,557,Wunderground v.1.15,2013-01-24 18:27:00,
2013-01-24 11:32:00,45.5,18.7,29.98,WSW,240,10.0,11.0,34,0.00,,,0.00,563,Wunderground v.1.15,2013-01-24 18:32:00,
2013-01-24 11:38:00,45.5,18.7,29.98,SSW,210,10.0,12.0,34,0.00,,,0.00,564,Wunderground v.1.15,2013-01-24 18:38:00,
2013-01-24 11:43:00,45.9,19.8,29.98,SSW,194,9.0,13.0,35,0.00,,,0.00,566,Wunderground v.1.15,2013-01-24 18:43:00,
2013-01-24 11:49:00,46.3,20.1,29.98,South,190,9.0,13.0,35,0.00,,,0.00,573,Wunderground v.1.15,2013-01-24 18:49:00,
2013-01-24 11:54:00,46.0,20.5,29.98,SW,215,10.0,14.0,36,0.00,,,0.00,575,Wunderground v.1.15,2013-01-24 18:54:00,
2013-01-24 11:59:00,45.8,20.3,29.97,WNW,292,10.0,14.0,36,0.00,,,0.00,575,Wunderground v.1.15,2013-01-24 18:59:00,
2013-01-24 12:04:00,45.6,20.1,29.97,SSW,206,9.0,22.0,36,0.00,,,0.00,580,Wunderground v.1.15,2013-01-24 19:04:00,
2013-01-24 12:10:00,45.1,20.3,29.97,West,272,10.0,11.0,37,0.00,,,0.00,575,Wunderground v.1.15,2013-01-24 19:10:00,
2013-01-24 12:16:00,45.0,20.3,29.97,West,274,10.0,15.0,37,0.00,,,0.00,577,Wunderground v.1.15,2013-01-24 19:16:00,
2013-01-24 12:21:00,44.9,20.2,29.96,South,171,9.0,9.0,37,0.00,,,0.00,578,Wunderground v.1.15,2013-01-24 19:21:00,
2013-01-24 12:26:00,44.7,20.0,29.96,West,272,9.0,21.0,37,0.00,,,0.00,585,Wunderground v.1.15,2013-01-24 19:26:00,
2013-01-24 12:32:00,44.2,19.5,29.96,West,277,10.0,12.0,37,0.00,,,0.00,587,Wunderground v.1.15,2013-01-24 19:32:00,
2013-01-24 12:37:00,44.8,20.1,29.96,West,273,9.0,12.0,37,0.00,,,0.00,617,Wunderground v.1.15,2013-01-24 19:37:00,
2013-01-24 12:43:00,44.2,19.5,29.95,SW,234,9.0,17.0,37,0.00,,,0.00,541,Wunderground v.1.15,2013-01-24 19:43:00,
2013-01-24 12:48:00,43.6,19.6,29.95,SW,234,8.0,17.0,38,0.00,,,0.00,56,Wunderground v.1.15,2013-01-24 19:48:00,
2013-01-24 12:53:00,43.3,19.4,29.95,WNW,290,7.0,13.0,38,0.00,,,0.00,230,Wunderground v.1.15,2013-01-24 19:53:00,
2013-01-24 12:59:00,43.6,19.6,29.94,West,268,6.0,13.0,38,0.00,,,0.00,585,Wunderground v.1.15,2013-01-24 19:59:00,
2013-01-24 13:04:00,43.8,19.8,29.94,West,260,6.0,23.0,38,0.00,,,0.00,72,Wunderground v.1.15,2013-01-24 20:04:00,
2013-01-24 13:10:00,44.2,20.2,29.94,SSW,209,6.0,6.0,38,0.00,,,0.00,612,Wunderground v.1.15,2013-01-24 20:10:00,
2013-01-24 13:15:00,44.9,20.8,29.94,SW,221,6.0,6.0,38,0.00,,,0.00,617,Wunderground v.1.15,2013-01-24 20:15:00,
2013-01-24 13:20:00,43.8,20.4,29.94,WSW,256,6.0,10.0,39,0.00,,,0.00,148,Wunderground v.1.15,2013-01-24 20:20:00,
2013-01-24 13:25:00,44.0,20.6,29.94,SSW,199,7.0,10.0,39,0.00,,,0.00,475,Wunderground v.1.15,2013-01-24 20:25:00,
2013-01-24 13:30:00,44.4,21.0,29.93,SSW,194,7.0,7.0,39,0.00,,,0.00,209,Wunderground v.1.15,2013-01-24 20:30:00,
2013-01-24 13:35:00,44.2,20.8,29.94,SSW,198,7.0,7.0,39,0.00,,,0.00,225,Wunderground v.1.15,2013-01-24 20:35:00,
2013-01-24 13:41:00,44.3,21.5,29.93,South,184,7.0,7.0,40,0.00,,,0.00,225,Wunderground v.1.15,2013-01-24 20:41:00,
2013-01-24 13:46:00,44.2,21.4,29.94,SSE,161,7.0,9.0,40,0.00,,,0.00,216,Wunderground v.1.15,2013-01-24 20:46:00,
2013-01-24 13:52:00,44.0,21.8,29.94,South,171,8.0,8.0,41,0.00,,,0.00,195,Wunderground v.1.15,2013-01-24 20:52:00,
2013-01-24 13:57:00,43.6,22.0,29.93,South,183,8.0,12.0,42,0.00,,,0.00,151,Wunderground v.1.15,2013-01-24 20:57:00,
2013-01-24 14:02:00,43.3,21.7,29.93,SSW,199,9.0,20.0,42,0.00,,,0.00,155,Wunderground v.1.15,2013-01-24 21:02:00,
2013-01-24 14:08:00,43.0,22.0,29.93,South,191,9.0,20.0,43,0.00,,,0.00,176,Wunderground v.1.15,2013-01-24 21:08:00,
2013-01-24 14:13:00,42.9,21.4,29.93,SSW,194,9.0,12.0,42,0.00,,,0.00,102,Wunderground v.1.15,2013-01-24 21:13:00,
2013-01-24 14:18:00,42.7,21.7,29.93,SSW,198,8.0,12.0,43,0.00,,,0.00,97,Wunderground v.1.15,2013-01-24 21:18:00,
2013-01-24 14:24:00,42.9,21.9,29.93,South,178,8.0,11.0,43,0.00,,,0.00,149,Wunderground v.1.15,2013-01-24 21:24:00,
2013-01-24 14:29:00,42.9,21.9,29.94,SSW,204,9.0,16.0,43,0.00,,,0.00,171,Wunderground v.1.15,2013-01-24 21:29:00,
2013-01-24 14:35:00,43.1,22.1,29.94,South,186,10.0,17.0,43,0.00,,,0.00,109,Wunderground v.1.15,2013-01-24 21:35:00,
2013-01-24 14:40:00,43.2,22.2,29.94,SSW,202,9.0,9.0,43,0.00,,,0.00,123,Wunderground v.1.15,2013-01-24 21:40:00,
2013-01-24 14:46:00,43.2,22.2,29.94,SSW,213,9.0,12.0,43,0.00,,,0.00,104,Wunderground v.1.15,2013-01-24 21:46:00,
2013-01-24 14:51:00,43.3,22.3,29.95,South,175,10.0,15.0,43,0.00,,,0.00,102,Wunderground v.1.15,2013-01-24 21:51:00,
2013-01-24 14:56:00,43.1,22.1,29.94,SSE,159,9.0,15.0,43,0.00,,,0.00,100,Wunderground v.1.15,2013-01-24 21:56:00,
2013-01-24 15:02:00,42.8,21.8,29.95,SSW,210,9.0,20.0,43,0.00,,,0.00,81,Wunderground v.1.15,2013-01-24 22:02:00,
2013-01-24 15:07:00,42.8,22.4,29.95,SSE,152,9.0,20.0,44,0.00,,,0.00,74,Wunderground v.1.15,2013-01-24 22:07:00,
2013-01-24 15:12:00,42.6,22.2,29.95,South,174,10.0,13.0,44,0.00,,,0.00,53,Wunderground v.1.15,2013-01-24 22:12:00,
2013-01-24 15:17:00,42.7,22.3,29.95,South,169,9.0,15.0,44,0.00,,,0.00,63,Wunderground v.1.15,2013-01-24 22:17:00,
2013-01-24 15:23:00,42.8,22.4,29.95,SW,229,10.0,12.0,44,0.00,,,0.00,65,Wunderground v.1.15,2013-01-24 22:23:00,
2013-01-24 15:28:00,42.8,22.4,29.95,SSW,196,10.0,12.0,44,0.00,,,0.00,83,Wunderground v.1.15,2013-01-24 22:28:00,
2013-01-24 15:34:00,42.8,22.4,29.96,South,191,9.0,9.0,44,0.00,,,0.00,51,Wunderground v.1.15,2013-01-24 22:34:00,
2013-01-24 15:40:00,42.8,22.4,29.96,SSW,194,8.0,8.0,44,0.00,,,0.00,54,Wunderground v.1.15,2013-01-24 22:40:00,
2013-01-24 15:45:00,42.7,22.3,29.96,South,180,7.0,13.0,44,0.00,,,0.00,67,Wunderground v.1.15,2013-01-24 22:45:00,
2013-01-24 15:51:00,43.0,22.5,29.95,SW,216,9.0,11.0,44,0.00,,,0.00,100,Wunderground v.1.15,2013-01-24 22:51:00,
2013-01-24 15:56:00,43.6,22.5,29.96,South,178,8.0,11.0,43,0.00,,,0.00,62,Wunderground v.1.15,2013-01-24 22:56:00,
2013-01-24 16:01:00,43.4,22.4,29.95,SSW,209,7.0,11.0,43,0.00,,,0.00,54,Wunderground v.1.15,2013-01-24 23:01:00,
2013-01-24 16:06:00,43.1,22.6,29.96,SSE,165,9.0,22.0,44,0.00,,,0.00,90,Wunderground v.1.15,2013-01-24 23:06:00,
2013-01-24 16:12:00,42.7,22.3,29.96,SE,144,8.0,10.0,44,0.00,,,0.00,93,Wunderground v.1.15,2013-01-24 23:12:00,
2013-01-24 16:17:00,43.0,22.5,29.96,SSW,205,8.0,13.0,44,0.00,,,0.00,123,Wunderground v.1.15,2013-01-24 23:17:00,
2013-01-24 16:22:00,43.3,22.3,29.95,SSW,211,9.0,9.0,43,0.00,,,0.00,118,Wunderground v.1.15,2013-01-24 23:22:00,
2013-01-24 16:28:00,43.1,22.6,29.95,South,176,10.0,12.0,44,0.00,,,0.00,95,Wunderground v.1.15,2013-01-24 23:28:00,
2013-01-24 16:33:00,43.2,22.7,29.95,SW,214,8.0,9.0,44,0.00,,,0.00,39,Wunderground v.1.15,2013-01-24 23:33:00,
2013-01-24 16:38:00,42.9,22.5,29.96,SW,221,8.0,9.0,44,0.00,,,0.00,26,Wunderground v.1.15,2013-01-24 23:38:00,
2013-01-24 16:44:00,42.3,21.9,29.95,WSW,238,7.0,12.0,44,0.00,,,0.00,18,Wunderground v.1.15,2013-01-24 23:44:00,
2013-01-24 16:49:00,41.8,22.0,29.96,SSE,150,7.0,12.0,45,0.00,,,0.00,16,Wunderground v.1.15,2013-01-24 23:49:00,
2013-01-24 16:54:00,41.4,21.6,29.96,SW,223,7.0,15.0,45,0.00,,,0.00,11,Wunderground v.1.15,2013-01-24 23:54:00,
2013-01-24 17:00:00,40.9,21.7,29.97,South,171,7.0,7.0,46,0.00,,,0.00,9,Wunderground v.1.15,2013-01-25 00:00:00,
2013-01-24 17:05:00,40.6,21.4,29.97,WNW,283,8.0,25.0,46,0.00,,,0.00,7,Wunderground v.1.15,2013-01-25 00:05:00,
2013-01-24 17:11:00,40.3,21.1,29.97,SW,236,7.0,7.0,46,0.00,,,0.00,5,Wunderground v.1.15,2013-01-25 00:11:00,
2013-01-24 17:16:00,40.2,21.0,29.98,SW,223,7.0,12.0,46,0.00,,,0.00,0,Wunderground v.1.15,2013-01-25 00:16:00,
2013-01-24 17:22:00,39.9,20.8,29.98,WSW,253,8.0,8.0,46,0.00,,,0.00,0,Wunderground v.1.15,2013-01-25 00:22:00,
2013-01-24 17:27:00,39.6,21.0,29.98,SW,229,7.0,11.0,47,0.00,,,0.00,0,Wunderground v.1.15,2013-01-25 00:27:00,
2013-01-24 17:33:00,39.6,21.5,29.99,WNW,295,7.0,15.0,48,0.00,,,0.00,0,Wunderground v.1.15,2013-01-25 00:33:00,
2013-01-24 17:38:00,39.5,21.4,29.98,South,186,8.0,15.0,48,0.00,,,0.00,0,Wunderground v.1.15,2013-01-25 00:38:00,
2013-01-24 17:43:00,39.3,21.2,29.99,West,269,6.0,8.0,48,0.00,,,0.00,0,Wunderground v.1.15,2013-01-25 00:43:00,
2013-01-24 17:48:00,39.2,21.6,29.99,SSW,201,6.0,8.0,49,0.00,,,0.00,0,Wunderground v.1.15,2013-01-25 00:48:00,
2013-01-24 17:53:00,39.1,21.5,29.99,SW,229,6.0,13.0,49,0.00,,,0.00,0,Wunderground v.1.15,2013-01-25 00:53:00,
2013-01-24 17:58:00,39.1,21.5,29.99,WSW,248,7.0,13.0,49,0.00,,,0.00,0,Wunderground v.1.15,2013-01-25 00:58:00,
2013-01-24 18:03:00,39.0,21.4,29.99,WSW,248,6.0,16.0,49,0.00,,,0.00,0,Wunderground v.1.15,2013-01-25 01:03:00,
2013-01-24 18:09:00,38.9,21.8,29.99,WSW,254,6.0,16.0,50,0.00,,,0.00,0,Wunderground v.1.15,2013-01-25 01:09:00,
2013-01-24 18:15:00,38.7,21.6,30.00,SW,223,6.0,7.0,50,0.00,,,0.00,0,Wunderground v.1.15,2013-01-25 01:15:00,
2013-01-24 18:21:00,38.4,21.8,30.00,WSW,256,6.0,6.0,51,0.00,,,0.00,0,Wunderground v.1.15,2013-01-25 01:21:00,
2013-01-24 18:27:00,38.2,21.6,30.00,SW,223,5.0,7.0,51,0.00,,,0.00,0,Wunderground v.1.15,2013-01-25 01:27:00,
2013-01-24 18:32:00,38.0,21.5,30.01,SW,231,5.0,7.0,51,0.00,,,0.00,0,Wunderground v.1.15,2013-01-25 01:32:00,
2013-01-24 18:37:00,37.7,21.6,30.00,SSW,195,5.0,7.0,52,0.00,,,0.00,0,Wunderground v.1.15,2013-01-25 01:37:00,
2013-01-24 18:43:00,37.9,21.8,30.01,SSW,212,5.0,10.0,52,0.00,,,0.00,0,Wunderground v.1.15,2013-01-25 01:43:00,
2013-01-24 18:48:00,37.9,21.8,30.01,WSW,248,5.0,10.0,52,0.00,,,0.00,0,Wunderground v.1.15,2013-01-25 01:48:00,
2013-01-24 18:54:00,37.9,21.8,30.01,West,267,4.0,7.0,52,0.00,,,0.00,0,Wunderground v.1.15,2013-01-25 01:54:00,
2013-01-24 19:00:00,38.0,21.9,30.02,WNW,286,4.0,5.0,52,0.00,,,0.00,0,Wunderground v.1.15,2013-01-25 02:00:00,
2013-01-24 19:05:00,38.1,22.0,30.02,West,281,6.0,19.0,52,0.00,,,0.00,0,Wunderground v.1.15,2013-01-25 02:05:00,
2013-01-24 19:11:00,38.1,22.0,30.03,SSW,199,6.0,6.0,52,0.00,,,0.00,0,Wunderground v.1.15,2013-01-25 02:11:00,
2013-01-24 19:17:00,37.9,21.8,30.03,SSE,155,5.0,10.0,52,0.00,,,0.00,0,Wunderground v.1.15,2013-01-25 02:17:00,
2013-01-24 19:22:00,37.8,22.2,30.03,SW,220,5.0,5.0,53,0.00,,,0.00,0,Wunderground v.1.15,2013-01-25 02:22:00,
2013-01-24 19:27:00,37.8,22.2,30.04,SW,221,4.0,9.0,53,0.00,,,0.00,0,Wunderground v.1.15,2013-01-25 02:27:00,
2013-01-24 19:32:00,37.9,22.3,30.04,WSW,241,4.0,6.0,53,0.00,,,0.00,0,Wunderground v.1.15,2013-01-25 02:32:00,
2013-01-24 19:38:00,38.0,22.4,30.04,WSW,246,5.0,7.0,53,0.00,,,0.00,0,Wunderground v.1.15,2013-01-25 02:38:00,
2013-01-24 19:43:00,38.0,22.4,30.04,SW,234,4.0,5.0,53,0.00,,,0.00,0,Wunderground v.1.15,2013-01-25 02:43:00,
2013-01-24 19:48:00,37.9,22.3,30.03,SW,219,3.0,5.0,53,0.00,,,0.00,0,Wunderground v.1.15,2013-01-25 02:48:00,
2013-01-24 19:54:00,37.8,22.2,30.03,SSW,211,3.0,5.0,53,0.00,,,0.00,0,Wunderground v.1.15,2013-01-25 02:54:00,
2013-01-24 19:59:00,37.7,22.5,30.03,SW,217,3.0,6.0,54,0.00,,,0.00,0,Wunderground v.1.15,2013-01-25 02:59:00,
2013-01-24 20:04:00,37.8,22.6,30.04,West,271,4.0,14.0,54,0.00,,,0.00,0,Wunderground v.1.15,2013-01-25 03:04:00,
2013-01-24 20:10:00,37.7,22.5,30.04,SW,234,5.0,11.0,54,0.00,,,0.00,0,Wunderground v.1.15,2013-01-25 03:10:00,
2013-01-24 20:15:00,37.7,22.5,30.05,West,263,6.0,13.0,54,0.00,,,0.00,0,Wunderground v.1.15,2013-01-25 03:15:00,
2013-01-24 20:20:00,37.6,22.4,30.04,WSW,253,6.0,6.0,54,0.00,,,0.00,0,Wunderground v.1.15,2013-01-25 03:20:00,
2013-01-24 20:26:00,37.7,22.5,30.04,WSW,250,6.0,9.0,54,0.00,,,0.00,0,Wunderground v.1.15,2013-01-25 03:26:00,
2013-01-24 20:32:00,37.7,22.5,30.04,WNW,292,7.0,7.0,54,0.00,,,0.00,0,Wunderground v.1.15,2013-01-25 03:32:00,
2013-01-24 20:37:00,37.7,22.5,30.05,NE,40,7.0,8.0,54,0.00,,,0.00,0,Wunderground v.1.15,2013-01-25 03:37:00,
2013-01-24 20:42:00,37.6,22.9,30.05,West,275,5.0,7.0,55,0.00,,,0.00,0,Wunderground v.1.15,2013-01-25 03:42:00,
2013-01-24 20:47:00,37.5,22.8,30.05,West,275,6.0,11.0,55,0.00,,,0.00,0,Wunderground v.1.15,2013-01-25 03:47:00,
2013-01-24 20:52:00,37.4,22.7,30.05,NW,313,7.0,7.0,55,0.00,,,0.00,0,Wunderground v.1.15,2013-01-25 03:52:00,
2013-01-24 20:58:00,37.2,22.9,30.06,South,180,6.0,7.0,56,0.00,,,0.00,0,Wunderground v.1.15,2013-01-25 03:58:00,
2013-01-24 21:04:00,37.0,22.7,30.05,SW,214,5.0,11.0,56,0.00,,,0.00,0,Wunderground v.1.15,2013-01-25 04:04:00,
2013-01-24 21:09:00,36.9,23.1,30.05,WNW,294,5.0,11.0,57,0.00,,,0.00,0,Wunderground v.1.15,2013-01-25 04:09:00,
2013-01-24 21:15:00,36.7,22.9,30.06,West,275,4.0,6.0,57,0.00,,,0.00,0,Wunderground v.1.15,2013-01-25 04:15:00,
2013-01-24 21:20:00,36.6,22.8,30.05,West,260,4.0,7.0,57,0.00,,,0.00,0,Wunderground v.1.15,2013-01-25 04:20:00,
2013-01-24 21:25:00,36.6,22.8,30.05,West,260,5.0,10.0,57,0.00,,,0.00,0,Wunderground v.1.15,2013-01-25 04:25:00,
2013-01-24 21:31:00,36.5,23.1,30.05,WNW,290,5.0,5.0,58,0.00,,,0.00,0,Wunderground v.1.15,2013-01-25 04:31:00,
2013-01-24 21:37:00,36.3,22.9,30.06,West,276,2.0,5.0,58,0.00,,,0.00,0,Wunderground v.1.15,2013-01-25 04:37:00,
2013-01-24 21:42:00,36.5,23.1,30.06,SW,219,3.0,7.0,58,0.00,,,0.00,0,Wunderground v.1.15,2013-01-25 04:42:00,
2013-01-24 21:47:00,36.4,23.0,30.07,NNW,341,5.0,10.0,58,0.00,,,0.00,0,Wunderground v.1.15,2013-01-25 04:47:00,
2013-01-24 21:52:00,36.4,23.0,30.06,WSW,257,5.0,6.0,58,0.00,,,0.00,0,Wunderground v.1.15,2013-01-25 04:52:00,
2013-01-24 21:58:00,36.4,23.0,30.07,SW,229,5.0,12.0,58,0.00,,,0.00,0,Wunderground v.1.15,2013-01-25 04:58:00,
2013-01-24 22:00:00,36.3,23.3,30.07,WNW,286,5.0,6.0,59,0.00,,,0.00,0,Wunderground v.1.15,2013-01-25 05:00:00,
2013-01-24 22:03:00,36.3,23.3,30.07,South,188,5.0,16.0,59,0.00,,,0.00,0,Wunderground v.1.15,2013-01-25 05:03:00,
2013-01-24 22:07:00,36.2,23.2,30.07,WNW,289,4.0,16.0,59,0.00,,,0.00,0,Wunderground v.1.15,2013-01-25 05:07:00,
2013-01-24 22:12:00,36.2,23.2,30.07,NW,313,4.0,4.0,59,0.00,,,0.00,0,Wunderground v.1.15,2013-01-25 05:12:00,
2013-01-24 22:15:00,36.1,23.1,30.07,WNW,285,3.0,4.0,59,0.00,,,0.00,0,Wunderground v.1.15,2013-01-25 05:15:00,
2013-01-24 22:20:00,36.1,23.1,30.08,WSW,248,2.0,3.0,59,0.00,,,0.00,0,Wunderground v.1.15,2013-01-25 05:20:00,
2013-01-24 22:26:00,35.9,23.0,30.08,WNW,302,2.0,3.0,59,0.00,,,0.00,0,Wunderground v.1.15,2013-01-25 05:26:00,
2013-01-24 22:31:00,35.7,22.8,30.09,WSW,247,1.0,4.0,59,0.00,,,0.00,0,Wunderground v.1.15,2013-01-25 05:31:00,
2013-01-24 22:37:00,35.5,23.0,30.09,SSE,163,2.0,4.0,60,0.00,,,0.00,0,Wunderground v.1.15,2013-01-25 05:37:00,
2013-01-24 22:43:00,35.1,23.0,30.09,SSE,152,2.0,3.0,61,0.00,,,0.00,0,Wunderground v.1.15,2013-01-25 05:43:00,
2013-01-24 22:48:00,35.0,22.9,30.09,SE,132,3.0,8.0,61,0.00,,,0.00,0,Wunderground v.1.15,2013-01-25 05:48:00,
2013-01-24 22:54:00,35.1,23.0,30.09,WSW,257,3.0,6.0,61,0.00,,,0.00,0,Wunderground v.1.15,2013-01-25 05:54:00,
2013-01-24 22:59:00,35.3,23.2,30.08,South,184,2.0,8.0,61,0.00,,,0.00,0,Wunderground v.1.15,2013-01-25 05:59:00,
2013-01-24 23:05:00,35.0,22.9,30.09,West,267,3.0,15.0,61,0.00,,,0.00,0,Wunderground v.1.15,2013-01-25 06:05:00,
2013-01-24 23:11:00,35.0,22.9,30.09,SW,217,2.0,2.0,61,0.00,,,0.00,0,Wunderground v.1.15,2013-01-25 06:11:00,
2013-01-24 23:16:00,35.0,22.9,30.08,WSW,250,1.0,2.0,61,0.00,,,0.00,0,Wunderground v.1.15,2013-01-25 06:16:00,
2013-01-24 23:22:00,34.7,23.0,30.08,WNW,290,1.0,2.0,62,0.00,,,0.00,0,Wunderground v.1.15,2013-01-25 06:22:00,
2013-01-24 23:27:00,34.4,22.7,30.08,West,280,1.0,2.0,62,0.00,,,0.00,0,Wunderground v.1.15,2013-01-25 06:27:00,
2013-01-24 23:33:00,34.4,23.1,30.08,South,177,1.0,3.0,63,0.00,,,0.00,0,Wunderground v.1.15,2013-01-25 06:33:00,
2013-01-24 23:38:00,34.4,23.1,30.08,WSW,251,2.0,8.0,63,0.00,,,0.00,0,Wunderground v.1.15,2013-01-25 06:38:00,
2013-01-24 23:44:00,34.4,22.7,30.09,WSW,255,2.0,4.0,62,0.00,,,0.00,0,Wunderground v.1.15,2013-01-25 06:44:00,
2013-01-24 23:49:00,34.4,22.7,30.09,WNW,296,2.0,4.0,62,0.00,,,0.00,0,Wunderground v.1.15,2013-01-25 06:49:00,
2013-01-24 23:54:00,34.4,23.1,30.10,WNW,296,1.0,2.0,63,0.00,,,0.00,0,Wunderground v.1.15,2013-01-25 06:54:00,